YAOGAN-30 Y

导读

YAOGAN-30 Y(遥感三十号Y星)是中国于2021年5月6日8时成功发射的遥感卫星,隶属于中国遥感系列卫星体系。该卫星主要用于开展电磁环境探测及相关技术试验验证,进入预定轨道后,持续为我国空间科学研究和国土资源观测等领域提供技术支持,进一步完善了我国遥感卫星组网布局,提升了多领域环境探测能力。

Basic Information
目录编号:
48424
目录名称:
YAOGAN-30 Y
国际标识:
2021-039B
轨道中心:
EARTH
卫星名称:
YAOGAN-30 Y
卫星全名:
--
卫星状态:
在轨 (已飞行1948 天)
发射日期:
2021-05-06 UTC
国别 :
中国 (CN)
星等 :
--
Orbit Information
数据来源 国际轨道数据
星历时间: 2026-09-05T18:59:39+0800
10小时前
查看轨道信息
半长轴: 6935.886km
偏心率: 0.0004013
轨道倾角: 34.995°
近地点辐角 177.097°
升交点赤经 261.695°
平近点角 182.977°
近地点: 554.965km
远地点: 560.533km
周期: 95.810分钟
每日圈数: 15.029687
Detailed Information
使用方式:
暂无
2D Orbit Map
3D Orbit Map
Orbit Altitude Analysis Chart
Orbit Inclination Analysis Chart
Orbit Comprehensive Analysis Chart
View Comprehensive Chart
Conjunction Data List
Event ID Objects TCA Miss Dist (km) Collision Risk Probability Collision Risk Index (CRI) Action
CDM_260906-224304-284704-842426
2026-09-06T
22:43:44+0000
1.682 km
极远距离
4.429363E-6 低风险 0.48